DateTimeUTC,F1_A11,F1_S11,BsB_S11,BsG_S11,BsR_S11,BbsB_S11,BbsG_S11,BbsR_S11,BaB_A11,BaG_A11,BaR_A11,Tu_S11,T_S11,Uu_S11,U_S11,P_S11,T1_A11
2021-11-30T14:00:00Z,00000200,21000000,,,,,,,0000.02,0000.27,-000.07,19.3,26.3,,00.0,0634.9,30.9
2021-11-30T14:01:00Z,00000200,21000000,,,,,,,-000.19,-000.39,-000.16,19.3,26.3,,00.0,0634.9,30.9
2021-11-30T14:02:00Z,00000200,21000000,,,,,,,0000.30,0000.13,-000.06,19.3,26.3,,00.0,0635.0,30.9
2021-11-30T14:03:00Z,00000200,61000000,,,,,,,0000.07,0000.10,0000.30,19.3,26.3,,00.0,0635.0,30.9
2021-11-30T14:04:00Z,00000200,41000000,0000.62,0000.30,0000.43,0000.13,0000.10,0000.04,0000.00,0000.34,0000.21,19.6,26.1,,00.0,0635.9,30.9
2021-11-30T14:05:00Z,00000200,01000000,0000.23,0000.16,-000.14,0000.26,0000.35,0000.12,0000.19,-000.20,-000.15,19.7,26.1,,00.0,0636.0,30.9
2021-11-30T14:06:00Z,00000200,01000000,-000.75,0000.39,0000.20,0000.07,-000.19,0000.30,0000.41,0000.26,0000.28,19.7,26.1,,00.0,0636.0,30.9
2021-11-30T14:07:00Z,00000200,01000000,0000.35,0000.62,-000.07,0000.41,0000.06,-000.06,-000.31,-000.11,-000.18,19.8,26.1,,00.0,0636.1,31.0
2021-11-30T14:08:00Z,00000200,01000000,0000.61,-000.07,-000.23,0000.34,0000.32,0000.25,-000.20,-000.07,0000.02,19.8,26.2,,00.0,0636.1,31.0
2021-11-30T14:09:00Z,00000200,01000000,0000.40,0000.27,-000.13,0000.33,0000.08,0000.68,0000.35,0000.03,0000.07,19.9,26.2,,00.0,0636.1,31.0
2021-11-30T14:10:00Z,00000200,01000000,0000.38,0000.18,-000.00,0000.42,0000.13,0000.09,0000.13,0000.04,-000.22,19.8,26.2,,00.0,0636.1,31.0
2021-11-30T14:11:00Z,00000200,01000000,0000.47,0000.32,-000.06,0000.36,0000.31,-000.18,0000.13,0000.04,0000.43,19.8,26.2,,00.0,0636.1,30.9
2021-11-30T14:12:00Z,00000200,01000000,0000.23,0000.49,0000.07,0000.49,0000.22,0000.16,-000.27,0000.01,0000.07,19.7,26.2,,00.0,0636.1,30.9
2021-11-30T14:13:00Z,00000200,01000000,0000.55,0000.38,-000.12,0000.28,-000.01,0000.40,0000.18,0000.13,-000.37,19.7,26.1,,00.0,0636.1,30.9
2021-11-30T14:14:00Z,00000200,01000000,0000.29,0000.29,-000.30,0001.04,0000.29,-000.16,0000.14,-000.17,0000.12,19.6,26.1,,00.0,0636.1,30.9
2021-11-30T14:15:00Z,00000200,01000000,-000.53,0000.28,-000.04,0000.14,0000.29,-000.02,0000.13,0000.29,-000.02,19.6,26.1,,00.0,0636.1,30.9
2021-11-30T14:16:00Z,00000200,01000000,0000.76,0000.29,0000.01,0000.17,0000.40,0000.20,0000.01,0000.19,-000.09,19.6,26.0,,00.0,0636.1,30.9
2021-11-30T14:17:00Z,00000200,01000000,0001.11,0000.27,0000.32,0000.05,0000.37,-000.06,0000.20,0000.25,0000.19,19.6,26.0,,00.0,0636.1,30.9
2021-11-30T14:18:00Z,00000200,01000000,0000.73,-000.01,0000.06,0000.81,0000.09,0000.07,0000.20,-000.05,-000.23,19.6,26.0,,00.0,0636.2,30.9
2021-11-30T14:19:00Z,00000200,01000000,0000.14,0000.42,-000.26,0000.69,0000.26,0000.20,0000.03,0000.12,0000.42,19.6,26.1,,00.0,0636.2,30.9
2021-11-30T14:20:00Z,00000200,01000000,0000.59,0000.34,-000.20,0000.16,0000.40,-000.11,0000.30,0000.13,0000.48,19.7,26.1,,00.0,0636.2,30.9
2021-11-30T14:21:00Z,00000200,01000000,-000.09,-000.34,0000.01,0000.37,0000.28,-000.29,0000.12,0000.03,-000.34,19.8,26.1,,00.0,0636.2,31.0
2021-11-30T14:22:00Z,00000200,01000000,0000.33,0000.44,-000.40,0000.37,0000.16,-000.15,0000.02,0000.03,0000.10,19.9,26.1,,00.0,0636.2,31.0
2021-11-30T14:23:00Z,00000200,01000000,0000.26,0000.39,0000.20,0000.92,0000.29,0000.37,-000.47,-000.20,-000.22,19.9,26.2,,00.0,0636.3,31.0
2021-11-30T14:24:00Z,00000200,01000000,-000.10,0000.20,0000.51,0000.89,0000.44,0000.36,0000.26,0000.24,0000.26,19.8,26.2,,00.0,0636.3,31.0
2021-11-30T14:25:00Z,00000200,01000000,0001.07,0000.42,-000.28,0000.32,0000.29,0000.05,0000.21,-000.04,-000.18,19.8,26.2,,00.0,0636.2,31.0
2021-11-30T14:26:00Z,00000200,01000000,0000.52,0000.21,0000.05,0000.05,0000.35,0000.26,-000.00,0000.02,0000.18,19.7,26.2,,00.0,0636.3,30.9
2021-11-30T14:27:00Z,00000200,01000000,0000.49,0000.25,-000.33,0000.46,0000.22,-000.17,0000.14,0000.08,0000.13,19.7,26.1,,00.0,0636.3,30.9
2021-11-30T14:28:00Z,00000200,01000000,0000.81,0000.37,0000.04,-000.11,0000.25,0000.10,-000.02,0000.18,0000.07,19.6,26.1,,00.0,0636.4,30.9
2021-11-30T14:29:00Z,00000200,01000000,0000.46,0000.28,0000.14,-000.12,0000.09,0000.40,-000.00,0000.08,-000.16,19.6,26.0,,00.0,0636.4,30.9
2021-11-30T14:30:00Z,00000200,01000000,0000.24,0000.22,0000.03,-000.17,0000.41,-000.15,0000.06,0000.06,0000.12,19.5,26.0,,00.0,0636.3,30.9
2021-11-30T14:31:00Z,00000200,01000000,-000.13,0000.16,0000.30,0000.76,0000.26,-000.12,0000.19,-000.02,-000.07,19.5,26.0,,00.0,0636.3,30.9
2021-11-30T14:32:00Z,00000200,01000000,0000.57,-000.10,-000.10,0000.34,0000.11,0000.25,-000.09,0000.07,0000.48,19.5,26.0,,00.0,0636.3,30.9
2021-11-30T14:33:00Z,00000200,01000000,0000.21,0000.01,-000.02,0000.80,0000.61,-000.18,0000.40,0000.25,-000.31,19.5,26.0,,00.0,0636.4,30.9
2021-11-30T14:34:00Z,00000200,01000000,0000.36,0000.30,-000.44,0000.69,0000.17,-000.41,0000.04,0000.23,0000.31,19.6,26.0,,00.0,0636.4,30.9
2021-11-30T14:35:00Z,00000200,01000000,-000.50,0000.30,0000.17,0000.01,0000.18,0000.20,0000.09,0000.29,-000.21,19.6,26.0,,00.0,0636.3,31.0
2021-11-30T14:36:00Z,00000200,01000000,0000.56,-000.13,0000.50,-000.04,0000.34,0000.18,0000.49,-000.17,0000.24,19.7,26.1,,00.0,0636.4,31.0
2021-11-30T14:37:00Z,00000200,01000000,0001.07,-000.03,0000.01,0000.37,0000.32,-000.14,-000.09,0000.21,-000.13,19.8,26.1,,00.0,0636.4,31.0
2021-11-30T14:38:00Z,00000200,01000000,0000.33,0000.20,0000.13,0000.35,0000.11,0000.06,-000.30,-000.25,0000.22,19.8,26.1,,00.0,0636.4,31.0
2021-11-30T14:39:00Z,00000200,01000000,0000.79,0000.03,0000.16,0000.75,0000.03,-000.07,0000.47,0000.34,0000.21,19.8,26.1,,00.0,0636.3,31.0
2021-11-30T14:40:00Z,00000200,01000000,-000.07,0000.49,-000.26,0000.43,0000.13,-000.03,-000.23,-000.30,-000.20,19.8,26.2,,00.0,0636.3,31.0
2021-11-30T14:41:00Z,00000200,01000000,0000.53,0000.14,0000.30,0000.43,0000.41,0000.25,-000.06,0000.23,-000.09,19.7,26.1,,00.0,0636.3,30.9
2021-11-30T14:42:00Z,00000200,01000000,0001.02,0000.22,-000.10,0000.16,0000.39,0000.07,0000.10,0000.02,0000.20,19.7,26.1,,00.0,0636.3,30.9
2021-11-30T14:43:00Z,00000200,01000000,0000.73,-000.22,-000.07,0000.01,0000.18,0000.18,0000.11,0000.02,-000.11,19.6,26.1,,00.0,0636.4,30.9
2021-11-30T14:44:00Z,00000200,01000000,0000.41,0000.39,0000.28,0000.14,0000.13,0000.13,0000.18,0000.24,0000.18,19.6,26.1,,00.0,0636.4,30.9
2021-11-30T14:45:00Z,00000200,01000000,0000.97,0000.56,-000.08,-000.09,0000.14,0000.55,0000.18,-000.17,-000.27,19.5,26.0,,00.0,0636.4,30.9
2021-11-30T14:46:00Z,00000200,01000000,-000.06,0000.43,0000.18,0000.03,0000.35,0000.05,0000.23,0000.15,0000.34,19.5,26.0,,00.0,0636.4,30.9
2021-11-30T14:47:00Z,00000200,01000000,0000.64,0000.17,0000.05,0000.05,-000.16,0000.20,-000.10,0000.26,0000.13,19.5,26.0,,00.0,0636.4,30.9
2021-11-30T14:48:00Z,00000200,01000000,0000.65,0000.67,-000.18,0000.76,0000.26,-000.08,0000.28,0000.15,0000.16,19.6,26.0,,00.0,0636.4,30.9
2021-11-30T14:49:00Z,00000200,01000000,0000.35,0000.32,-000.06,0000.59,0000.50,0000.12,0000.08,-000.16,0000.21,19.6,26.0,,00.0,0636.5,30.9
2021-11-30T14:50:00Z,00000200,01000000,0000.19,0000.45,0000.21,0000.64,-000.04,-000.02,-000.11,-000.10,-000.04,19.7,26.0,,00.0,0636.5,30.9
2021-11-30T14:51:00Z,00000200,01000000,0001.18,0000.42,-000.08,0000.85,0000.16,-000.20,0000.16,0000.27,-000.10,19.7,26.1,,00.0,0636.6,30.9
2021-11-30T14:52:00Z,00000200,01000000,0000.52,-000.02,-000.09,-000.02,0000.43,0000.48,0000.41,0000.10,-000.00,19.8,26.1,,00.0,0636.6,30.9
2021-11-30T14:53:00Z,00000200,01000000,0000.59,0000.32,-000.10,0000.92,0000.27,-000.02,-000.13,0000.07,-000.45,19.8,26.1,,00.0,0636.5,31.0
2021-11-30T14:54:00Z,00000200,01000000,0000.71,-000.11,-000.08,0000.15,-000.05,0000.00,-000.08,-000.29,0000.07,19.9,26.1,,00.0,0636.6,31.0
2021-11-30T14:55:00Z,00000200,01000000,0001.00,0000.80,0000.45,0000.05,0000.38,0000.29,-000.10,0000.25,0000.13,19.8,26.1,,00.0,0636.7,30.9
2021-11-30T14:56:00Z,00000200,01000000,0000.67,0000.29,0000.05,0000.68,0000.29,-000.03,0000.03,-000.01,-000.10,19.7,26.1,,00.0,0636.5,30.9
2021-11-30T14:57:00Z,00000200,41000000,,,,,,,0000.54,0000.79,0001.00,19.8,26.1,,00.0,0636.4,30.9
2021-11-30T14:58:00Z,00000200,61000000,,,,,,,-000.66,-000.69,-000.55,19.3,26.2,,00.0,0635.5,30.9
2021-11-30T14:59:00Z,00000200,21000000,,,,,,,0000.21,0000.07,-000.47,19.3,26.3,,00.0,0635.6,30.9
